Time,TemperatureF,DewpointF,PressureIn,WindDirection,WindDirectionDegrees,WindSpeedMPH,WindSpeedGustMPH,Humidity,HourlyPrecipIn,Conditions,Clouds,dailyrainin,SoftwareType,DateUTC
2013-01-10 00:03:00,33.0,29.0,-100.00,West,270,0.0,0.0,83,0.00,,,-99.99,,2013-01-10 05:03:00,
2013-01-10 00:12:00,33.0,29.0,-100.00,WSW,255,0.0,0.0,84,0.00,,,-99.99,,2013-01-10 05:12:00,
2013-01-10 00:22:00,33.0,28.0,-100.00,WSW,255,0.0,0.0,84,0.00,,,-99.99,,2013-01-10 05:22:00,
2013-01-10 00:33:00,33.0,29.0,-100.00,North,0,0.0,1.0,84,0.00,,,-99.99,,2013-01-10 05:33:00,
2013-01-10 00:42:00,32.0,28.0,-100.00,East,90,0.0,3.0,85,0.00,,,-99.99,,2013-01-10 05:42:00,
2013-01-10 00:52:00,31.0,28.0,-100.00,ESE,105,0.0,0.0,86,0.00,,,-99.99,,2013-01-10 05:52:00,
2013-01-10 01:02:00,31.0,28.0,-100.00,NNE,20,0.0,0.0,86,0.00,,,-99.99,,2013-01-10 06:02:00,
2013-01-10 01:12:00,31.0,28.0,-100.00,North,355,0.0,0.0,87,0.00,,,-99.99,,2013-01-10 06:12:00,
2013-01-10 01:22:00,31.0,28.0,-100.00,NNW,345,0.0,0.0,87,0.00,,,-99.99,,2013-01-10 06:22:00,
2013-01-10 01:32:00,31.0,28.0,-100.00,North,10,0.0,1.0,87,0.00,,,-99.99,,2013-01-10 06:32:00,
2013-01-10 01:42:00,31.0,28.0,-100.00,East,85,0.0,1.0,87,0.00,,,-99.99,,2013-01-10 06:42:00,
2013-01-10 01:52:00,31.0,28.0,-100.00,NNE,30,0.0,2.0,88,0.00,,,-99.99,,2013-01-10 06:52:00,
2013-01-10 02:02:00,31.0,28.0,-100.00,NNE,30,0.0,2.0,88,0.00,,,-99.99,,2013-01-10 07:02:00,
2013-01-10 02:12:00,30.0,27.0,-100.00,North,0,0.0,3.0,88,0.00,,,-99.99,,2013-01-10 07:12:00,
2013-01-10 02:22:00,30.0,27.0,-100.00,South,190,0.0,1.0,88,0.00,,,-99.99,,2013-01-10 07:22:00,
2013-01-10 02:32:00,30.0,27.0,-100.00,NE,50,0.0,2.0,88,0.00,,,-99.99,,2013-01-10 07:32:00,
2013-01-10 02:42:00,29.0,27.0,-100.00,NE,35,0.0,1.0,90,0.00,,,-99.99,,2013-01-10 07:42:00,
2013-01-10 02:52:00,29.0,27.0,-100.00,NE,35,0.0,1.0,90,0.00,,,-99.99,,2013-01-10 07:52:00,
2013-01-10 03:02:00,30.0,27.0,-100.00,East,85,0.0,4.0,90,0.00,,,-99.99,,2013-01-10 08:02:00,
2013-01-10 03:12:00,29.0,27.0,-100.00,ENE,60,0.0,1.0,90,0.00,,,-99.99,,2013-01-10 08:12:00,
2013-01-10 03:22:00,29.0,27.0,-100.00,NNE,15,1.0,2.0,90,0.00,,,-99.99,,2013-01-10 08:22:00,
2013-01-10 03:32:00,29.0,27.0,-100.00,NNE,20,0.0,2.0,90,0.00,,,-99.99,,2013-01-10 08:32:00,
2013-01-10 03:42:00,29.0,27.0,-100.00,NE,55,0.0,1.0,90,0.00,,,-99.99,,2013-01-10 08:42:00,
2013-01-10 03:52:00,29.0,27.0,-100.00,North,5,0.0,2.0,90,0.00,,,-99.99,,2013-01-10 08:52:00,
2013-01-10 04:02:00,29.0,27.0,-100.00,ESE,105,0.0,2.0,90,0.00,,,-99.99,,2013-01-10 09:02:00,
2013-01-10 04:12:00,29.0,26.0,-100.00,ENE,70,0.0,1.0,91,0.00,,,-99.99,,2013-01-10 09:12:00,
2013-01-10 04:22:00,29.0,27.0,-100.00,North,10,1.0,2.0,91,0.00,,,-99.99,,2013-01-10 09:22:00,
2013-01-10 04:32:00,29.0,26.0,-100.00,North,5,1.0,3.0,91,0.00,,,-99.99,,2013-01-10 09:32:00,
2013-01-10 04:42:00,28.0,26.0,-100.00,North,10,0.0,1.0,91,0.00,,,-99.99,,2013-01-10 09:42:00,
2013-01-10 04:52:00,29.0,27.0,-100.00,East,100,0.0,2.0,91,0.00,,,-99.99,,2013-01-10 09:52:00,
2013-01-10 05:03:00,28.0,26.0,-100.00,NE,50,0.0,1.0,91,0.00,,,-99.99,,2013-01-10 10:03:00,
2013-01-10 05:12:00,29.0,27.0,-100.00,North,0,1.0,3.0,91,0.00,,,-99.99,,2013-01-10 10:12:00,
2013-01-10 05:22:00,28.0,26.0,-100.00,North,0,0.0,2.0,91,0.00,,,-99.99,,2013-01-10 10:22:00,
2013-01-10 05:32:00,29.0,27.0,-100.00,North,5,1.0,2.0,91,0.00,,,-99.99,,2013-01-10 10:32:00,
2013-01-10 05:42:00,28.0,26.0,-100.00,North,5,1.0,4.0,90,0.00,,,-99.99,,2013-01-10 10:42:00,
2013-01-10 05:52:00,29.0,26.0,-100.00,NNE,25,1.0,2.0,90,0.00,,,-99.99,,2013-01-10 10:52:00,
2013-01-10 06:02:00,29.0,26.0,-100.00,NNE,15,1.0,3.0,88,0.00,,,-99.99,,2013-01-10 11:02:00,
2013-01-10 06:12:00,30.0,26.0,-100.00,NNE,25,0.0,6.0,86,0.00,,,-99.99,,2013-01-10 11:12:00,
2013-01-10 06:22:00,29.0,26.0,-100.00,North,0,1.0,2.0,86,0.00,,,-99.99,,2013-01-10 11:22:00,
2013-01-10 06:33:00,29.0,26.0,-100.00,North,10,0.0,2.0,87,0.00,,,-99.99,,2013-01-10 11:33:00,
2013-01-10 06:43:00,29.0,26.0,-100.00,NNE,25,0.0,2.0,87,0.00,,,-99.99,,2013-01-10 11:43:00,
2013-01-10 06:52:00,29.0,26.0,-100.00,North,355,0.0,1.0,87,0.00,,,-99.99,,2013-01-10 11:52:00,
2013-01-10 07:03:00,29.0,26.0,-100.00,ESE,105,0.0,2.0,88,0.00,,,-99.99,,2013-01-10 12:03:00,
2013-01-10 07:12:00,29.0,26.0,-100.00,NE,35,0.0,3.0,89,0.00,,,-99.99,,2013-01-10 12:12:00,
2013-01-10 07:22:00,29.0,26.0,-100.00,SE,125,1.0,1.0,89,0.00,,,-99.99,,2013-01-10 12:22:00,
2013-01-10 07:33:00,29.0,26.0,-100.00,ESE,110,1.0,2.0,88,0.00,,,-99.99,,2013-01-10 12:33:00,
2013-01-10 07:43:00,29.0,26.0,-100.00,East,80,0.0,2.0,90,0.00,,,-99.99,,2013-01-10 12:43:00,
2013-01-10 07:53:00,29.0,26.0,-100.00,ESE,110,1.0,2.0,88,0.00,,,-99.99,,2013-01-10 12:53:00,
2013-01-10 08:02:00,30.0,27.0,-100.00,NE,55,0.0,2.0,88,0.00,,,-99.99,,2013-01-10 13:02:00,
2013-01-10 08:12:00,30.0,27.0,-100.00,ESE,110,1.0,3.0,86,0.00,,,-99.99,,2013-01-10 13:12:00,
2013-01-10 08:22:00,30.0,27.0,-100.00,NNE,30,1.0,3.0,86,0.00,,,-99.99,,2013-01-10 13:22:00,
2013-01-10 08:32:00,31.0,27.0,-100.00,East,95,2.0,4.0,84,0.00,,,-99.99,,2013-01-10 13:32:00,
2013-01-10 08:42:00,31.0,27.0,-100.00,East,100,1.0,3.0,83,0.00,,,-99.99,,2013-01-10 13:42:00,
2013-01-10 08:52:00,31.0,27.0,-100.00,NE,45,1.0,4.0,82,0.00,,,-99.99,,2013-01-10 13:52:00,
2013-01-10 09:02:00,32.0,27.0,-100.00,ENE,75,1.0,3.0,80,0.00,,,-99.99,,2013-01-10 14:02:00,
2013-01-10 09:12:00,33.0,27.0,-100.00,East,90,2.0,4.0,77,0.00,,,-99.99,,2013-01-10 14:12:00,
2013-01-10 09:22:00,33.0,27.0,-100.00,NE,55,2.0,4.0,77,0.00,,,-99.99,,2013-01-10 14:22:00,
2013-01-10 09:33:00,33.0,27.0,-100.00,ENE,65,4.0,7.0,77,0.00,,,-99.99,,2013-01-10 14:33:00,
2013-01-10 09:43:00,34.0,27.0,-100.00,ENE,60,6.0,10.0,75,0.00,,,-99.99,,2013-01-10 14:43:00,
2013-01-10 09:53:00,34.0,27.0,-100.00,ENE,65,4.0,8.0,74,0.00,,,-99.99,,2013-01-10 14:53:00,
2013-01-10 10:03:00,34.0,27.0,-100.00,ENE,65,5.0,9.0,75,0.00,,,-99.99,,2013-01-10 15:03:00,
2013-01-10 10:12:00,35.0,28.0,-100.00,ENE,65,4.0,9.0,74,0.00,,,-99.99,,2013-01-10 15:12:00,
2013-01-10 10:23:00,36.0,28.0,-100.00,ENE,75,4.0,10.0,72,0.00,,,-99.99,,2013-01-10 15:23:00,
2013-01-10 10:33:00,36.0,28.0,-100.00,East,80,5.0,8.0,71,0.00,,,-99.99,,2013-01-10 15:33:00,
2013-01-10 10:43:00,37.0,28.0,-100.00,ENE,70,4.0,9.0,68,0.00,,,-99.99,,2013-01-10 15:43:00,
2013-01-10 10:53:00,37.0,28.0,-100.00,East,80,6.0,10.0,69,0.00,,,-99.99,,2013-01-10 15:53:00,
2013-01-10 11:03:00,37.0,28.0,-100.00,ENE,65,7.0,11.0,69,0.00,,,-99.99,,2013-01-10 16:03:00,
2013-01-10 11:13:00,37.0,28.0,-100.00,ENE,70,7.0,14.0,69,0.00,,,-99.99,,2013-01-10 16:13:00,
2013-01-10 11:23:00,37.0,28.0,-100.00,East,90,6.0,12.0,69,0.00,,,-99.99,,2013-01-10 16:23:00,
2013-01-10 11:33:00,37.0,28.0,-100.00,East,80,7.0,12.0,69,0.00,,,-99.99,,2013-01-10 16:33:00,
2013-01-10 11:43:00,38.0,28.0,-100.00,East,80,6.0,12.0,68,0.00,,,-99.99,,2013-01-10 16:43:00,
2013-01-10 11:52:00,38.0,28.0,-100.00,East,85,9.0,14.0,66,0.00,,,-99.99,,2013-01-10 16:52:00,
2013-01-10 12:03:00,38.0,28.0,-100.00,ENE,65,6.0,9.0,66,0.00,,,-99.99,,2013-01-10 17:03:00,
2013-01-10 12:12:00,39.0,28.0,-100.00,ESE,110,8.0,12.0,65,0.00,,,-99.99,,2013-01-10 17:12:00,
2013-01-10 12:22:00,39.0,28.0,-100.00,East,90,8.0,15.0,65,0.00,,,-99.99,,2013-01-10 17:22:00,
2013-01-10 12:33:00,39.0,29.0,-100.00,ESE,115,6.0,11.0,66,0.00,,,-99.99,,2013-01-10 17:33:00,
2013-01-10 12:42:00,39.0,29.0,-100.00,ESE,105,6.0,11.0,66,0.00,,,-99.99,,2013-01-10 17:42:00,
2013-01-10 12:53:00,39.0,29.0,-100.00,East,90,4.0,9.0,64,0.00,,,-99.99,,2013-01-10 17:53:00,
2013-01-10 13:03:00,39.0,29.0,-100.00,East,100,7.0,10.0,65,0.00,,,-99.99,,2013-01-10 18:03:00,
2013-01-10 13:12:00,40.0,29.0,-100.00,East,100,6.0,11.0,64,0.00,,,-99.99,,2013-01-10 18:12:00,
2013-01-10 13:23:00,40.0,28.0,-100.00,East,90,8.0,10.0,63,0.00,,,-99.99,,2013-01-10 18:23:00,
2013-01-10 13:33:00,40.0,29.0,-100.00,East,100,4.0,9.0,64,0.00,,,-99.99,,2013-01-10 18:33:00,
2013-01-10 13:43:00,40.0,29.0,-100.00,East,90,6.0,12.0,65,0.00,,,-99.99,,2013-01-10 18:43:00,
2013-01-10 13:52:00,39.0,29.0,-100.00,East,100,9.0,13.0,64,0.00,,,-99.99,,2013-01-10 18:52:00,
2013-01-10 14:03:00,40.0,29.0,-100.00,East,90,5.0,9.0,64,0.00,,,-99.99,,2013-01-10 19:03:00,
2013-01-10 14:13:00,39.0,29.0,-100.00,East,95,7.0,10.0,65,0.00,,,-99.99,,2013-01-10 19:13:00,
2013-01-10 14:23:00,40.0,29.0,-100.00,East,85,7.0,12.0,66,0.00,,,-99.99,,2013-01-10 19:23:00,
2013-01-10 14:33:00,40.0,29.0,-100.00,East,90,4.0,11.0,66,0.00,,,-99.99,,2013-01-10 19:33:00,
2013-01-10 14:43:00,40.0,29.0,-100.00,ESE,110,4.0,11.0,67,0.00,,,-99.99,,2013-01-10 19:43:00,
2013-01-10 14:53:00,39.0,30.0,-100.00,East,85,7.0,11.0,68,0.00,,,-99.99,,2013-01-10 19:53:00,
2013-01-10 15:03:00,39.0,30.0,-100.00,East,90,4.0,12.0,68,0.00,,,-99.99,,2013-01-10 20:03:00,
2013-01-10 15:13:00,39.0,29.0,-100.00,ENE,70,7.0,12.0,67,0.00,,,-99.99,,2013-01-10 20:13:00,
2013-01-10 15:24:00,39.0,30.0,-100.00,East,90,6.0,12.0,67,0.00,,,-99.99,,2013-01-10 20:24:00,
2013-01-10 15:33:00,39.0,30.0,-100.00,East,90,8.0,12.0,68,0.00,,,-99.99,,2013-01-10 20:33:00,
2013-01-10 15:43:00,39.0,30.0,-100.00,East,90,7.0,14.0,69,0.00,,,-99.99,,2013-01-10 20:43:00,
2013-01-10 15:53:00,39.0,29.0,-100.00,East,100,7.0,14.0,68,0.00,,,-99.99,,2013-01-10 20:53:00,
2013-01-10 16:04:00,39.0,30.0,-100.00,East,90,7.0,12.0,69,0.00,,,-99.99,,2013-01-10 21:04:00,
2013-01-10 16:12:00,39.0,29.0,-100.00,East,95,7.0,12.0,68,0.00,,,-99.99,,2013-01-10 21:12:00,
2013-01-10 16:23:00,39.0,29.0,-100.00,East,80,6.0,9.0,69,0.00,,,-99.99,,2013-01-10 21:23:00,
2013-01-10 16:33:00,39.0,30.0,-100.00,East,95,4.0,9.0,70,0.00,,,-99.99,,2013-01-10 21:33:00,
2013-01-10 16:42:00,38.0,30.0,-100.00,ENE,60,4.0,9.0,70,0.00,,,-99.99,,2013-01-10 21:42:00,
2013-01-10 16:53:00,38.0,30.0,-100.00,ENE,65,4.0,8.0,72,0.00,,,-99.99,,2013-01-10 21:53:00,
2013-01-10 17:04:00,38.0,30.0,-100.00,SE,130,5.0,8.0,73,0.00,,,-99.99,,2013-01-10 22:04:00,
2013-01-10 17:12:00,38.0,30.0,-100.00,East,95,5.0,9.0,73,0.00,,,-99.99,,2013-01-10 22:12:00,
2013-01-10 17:26:00,38.0,30.0,-100.00,ESE,105,6.0,11.0,72,0.00,,,-99.99,,2013-01-10 22:26:00,
2013-01-10 17:33:00,38.0,30.0,-100.00,East,90,7.0,11.0,73,0.00,,,-99.99,,2013-01-10 22:33:00,
2013-01-10 17:43:00,38.0,30.0,-100.00,East,85,5.0,10.0,74,0.00,,,-99.99,,2013-01-10 22:43:00,
2013-01-10 18:03:00,38.0,30.0,-100.00,East,80,5.0,9.0,75,0.00,,,-99.99,,2013-01-10 23:03:00,
2013-01-10 18:13:00,38.0,31.0,-100.00,East,90,6.0,9.0,75,0.00,,,-99.99,,2013-01-10 23:13:00,
2013-01-10 18:23:00,38.0,30.0,-100.00,East,85,6.0,10.0,73,0.00,,,-99.99,,2013-01-10 23:23:00,
2013-01-10 18:33:00,38.0,30.0,-100.00,East,85,7.0,11.0,71,0.00,,,-99.99,,2013-01-10 23:33:00,
2013-01-10 18:43:00,38.0,30.0,-100.00,East,95,7.0,11.0,70,0.00,,,-99.99,,2013-01-10 23:43:00,
2013-01-10 18:53:00,39.0,29.0,-100.00,ENE,75,9.0,15.0,68,0.00,,,-99.99,,2013-01-10 23:53:00,
2013-01-10 19:03:00,39.0,29.0,-100.00,East,100,5.0,12.0,69,0.00,,,-99.99,,2013-01-11 00:03:00,
2013-01-10 19:13:00,39.0,30.0,-100.00,ESE,110,6.0,9.0,69,0.00,,,-99.99,,2013-01-11 00:13:00,
2013-01-10 19:23:00,39.0,30.0,-100.00,ESE,115,4.0,9.0,69,0.00,,,-99.99,,2013-01-11 00:23:00,
2013-01-10 19:33:00,39.0,29.0,-100.00,ESE,105,6.0,9.0,68,0.00,,,-99.99,,2013-01-11 00:33:00,
2013-01-10 19:42:00,39.0,29.0,-100.00,East,100,6.0,8.0,67,0.00,,,-99.99,,2013-01-11 00:42:00,
2013-01-10 19:52:00,39.0,29.0,-100.00,ESE,110,6.0,9.0,67,0.00,,,-99.99,,2013-01-11 00:52:00,
2013-01-10 20:03:00,40.0,29.0,-100.00,ESE,110,6.0,10.0,66,0.00,,,-99.99,,2013-01-11 01:03:00,
2013-01-10 20:13:00,40.0,29.0,-100.00,ESE,105,4.0,9.0,65,0.00,,,-99.99,,2013-01-11 01:13:00,
2013-01-10 20:23:00,40.0,28.0,-100.00,ESE,115,7.0,11.0,60,0.00,,,-99.99,,2013-01-11 01:23:00,
2013-01-10 20:34:00,41.0,28.0,-100.00,ESE,105,6.0,14.0,58,0.00,,,-99.99,,2013-01-11 01:34:00,
2013-01-10 20:43:00,41.0,27.0,-100.00,SE,125,7.0,12.0,57,0.00,,,-99.99,,2013-01-11 01:43:00,
2013-01-10 20:53:00,42.0,27.0,-100.00,SE,130,9.0,12.0,55,0.00,,,-99.99,,2013-01-11 01:53:00,
2013-01-10 21:03:00,42.0,28.0,-100.00,ESE,110,7.0,16.0,56,0.00,,,-99.99,,2013-01-11 02:03:00,
2013-01-10 21:13:00,42.0,29.0,-100.00,ESE,110,8.0,16.0,58,0.00,,,-99.99,,2013-01-11 02:13:00,
2013-01-10 21:23:00,42.0,29.0,-100.00,SE,125,7.0,16.0,59,0.00,,,-99.99,,2013-01-11 02:23:00,
2013-01-10 21:33:00,42.0,29.0,-100.00,SE,125,7.0,16.0,61,0.00,,,-99.99,,2013-01-11 02:33:00,
2013-01-10 21:43:00,42.0,29.0,-100.00,ESE,110,9.0,16.0,60,0.00,,,-99.99,,2013-01-11 02:43:00,
2013-01-10 21:53:00,42.0,30.0,-100.00,SE,125,9.0,14.0,63,0.00,,,-99.99,,2013-01-11 02:53:00,
2013-01-10 22:03:00,42.0,31.0,-100.00,ESE,110,8.0,16.0,64,0.00,,,-99.99,,2013-01-11 03:03:00,
2013-01-10 22:12:00,42.0,30.0,-100.00,ESE,115,7.0,14.0,62,0.00,,,-99.99,,2013-01-11 03:12:00,
2013-01-10 22:23:00,42.0,30.0,-100.00,East,100,9.0,15.0,60,0.00,,,-99.99,,2013-01-11 03:23:00,
2013-01-10 22:33:00,42.0,30.0,-100.00,East,100,6.0,11.0,60,0.00,,,-99.99,,2013-01-11 03:33:00,
2013-01-10 22:43:00,42.0,29.0,-100.00,East,100,9.0,15.0,58,0.00,,,-99.99,,2013-01-11 03:43:00,
2013-01-10 22:53:00,42.0,29.0,-100.00,SE,130,7.0,13.0,59,0.00,,,-99.99,,2013-01-11 03:53:00,
2013-01-10 23:02:00,42.0,29.0,-100.00,ESE,120,6.0,13.0,59,0.00,,,-99.99,,2013-01-11 04:02:00,
2013-01-10 23:12:00,43.0,29.0,-100.00,ESE,115,6.0,11.0,57,0.00,,,-99.99,,2013-01-11 04:12:00,
2013-01-10 23:22:00,43.0,29.0,-100.00,ESE,115,6.0,11.0,57,0.00,,,-99.99,,2013-01-11 04:22:00,
2013-01-10 23:33:00,43.0,27.0,-100.00,ESE,120,6.0,12.0,51,0.00,,,-99.99,,2013-01-11 04:33:00,
2013-01-10 23:43:00,43.0,27.0,-100.00,ESE,115,6.0,11.0,52,0.00,,,-99.99,,2013-01-11 04:43:00,
2013-01-10 23:52:00,43.0,27.0,-100.00,SE,125,8.0,12.0,52,0.00,,,-99.99,,2013-01-11 04:52:00,